Location: Recife
(8.0585°S, 34.8848°W)
Time: 01:41:03
(UTC-03:00)

Courier 1B Rocket - Pass Details

Date: 23 April 2026
Orbit: 920 x 1201 km, 28.2° (Epoch: 14 May)

Event Time Altitude Azimuth Distance (km) Brightness Sun altitude
Exits shadow 02:29:08 11° 134° (SE) 2,587 7.5 -42.8°
Drops below altitude 10° 02:29:15 10° 134° (SE) 2,627 7.5 -42.8°
Sets 02:32:00 0° 128° (SE) 3,585 8.4 -42.1°
